{"data":{"norad_id":58425,"intl_designator":"2023-181A","name":"CHUANGXIN 20A (CX-20A)","alt_names":[],"object_type":"PAYLOAD","status":"ACTIVE","operator":null,"country":"PRC","launch_date":"2023-11-23","launch_site_code":"XICLF","launch_vehicle":null,"mission":null,"orbit_class":"UNKNOWN","rcs_meters":null,"size_class":null,"mass_kg":null,"dimensions":null,"purposes":[],"wikipedia_slug":null,"has_3d_model":false,"image_url":null,"decayed_at":null,"tle_current":{"epoch":"2026-09-21T18:08:58.660800Z","epoch_age_seconds":133518,"freshness":"FRESH","line1":"1 58425U 23181A   26264.75623450 -.00000102  00000+0  46597-4 0  9999","line2":"2 58425  49.9607 332.5994 0013836 201.7404 158.2888 13.41504462138715","mean_motion":13.41504462,"eccentricity":0.0013836,"inclination_deg":49.9607,"raan_deg":332.5994,"arg_perigee_deg":201.7404,"mean_anomaly_deg":158.2888,"bstar":4.6597e-5,"rev_number":13871,"period_min":107.34216998825,"perigee_km":1093.3283676527,"apogee_km":1114.032052236,"semimajor_km":7481.8172099443,"source":"CELESTRAK","updated_at":"2026-09-22T09:00:26.634358Z"}}}